AEE9SF LGAV-LBSF

Flight info

Callsign AEE9SF
Flight time 1h 0m
Altitude 36000
Route KRO UT162 KOROS UN133 PEREN UL863 EVIVI Y94 VANET
Aircraft A320/M-SDE3FGHIRWY/LB1

Departure

Time 2026-05-04 18:24
Airport Athens Eleftherios Venizelos International Airport (LGAV)

Arrival

Time 2026-05-04 19:25
Airport Sofia Airport (LBSF)
Time Latitude Longitude Altitude Speed Heading
2026-05-04 17:53 37.94136 23.95334 301 ft 0 kts 218°
2026-05-04 18:07 37.94137 23.95334 301 ft 0 kts 218°
2026-05-04 18:15 37.94149 23.95347 302 ft 4 kts 217°
2026-05-04 18:16 37.94171 23.95368 302 ft 4 kts 217°
2026-05-04 18:16 37.94192 23.95387 301 ft 4 kts 213°
2026-05-04 18:16 37.94209 23.95400 302 ft 2 kts 197°
2026-05-04 18:17 37.94231 23.95391 301 ft 4 kts 128°
2026-05-04 18:17 37.94244 23.95369 303 ft 3 kts 127°
2026-05-04 18:17 37.94253 23.95354 301 ft 0 kts 128°
2026-05-04 18:19 37.94238 23.95379 301 ft 6 kts 126°
2026-05-04 18:19 37.94199 23.95445 300 ft 12 kts 127°
2026-05-04 18:20 37.94141 23.95542 300 ft 16 kts 128°
2026-05-04 18:20 37.94071 23.95643 298 ft 14 kts 156°
2026-05-04 18:20 37.93979 23.95594 299 ft 16 kts 217°
2026-05-04 18:20 37.93880 23.95500 298 ft 19 kts 217°
2026-05-04 18:21 37.93766 23.95392 300 ft 21 kts 216°
2026-05-04 18:21 37.93642 23.95274 301 ft 23 kts 216°
2026-05-04 18:21 37.93506 23.95146 300 ft 25 kts 217°
2026-05-04 18:21 37.93361 23.95007 300 ft 27 kts 217°
2026-05-04 18:22 37.93205 23.94860 301 ft 29 kts 216°
2026-05-04 18:22 37.93041 23.94704 300 ft 30 kts 217°
2026-05-04 18:22 37.92874 23.94545 302 ft 28 kts 216°
2026-05-04 18:22 37.92712 23.94392 302 ft 30 kts 217°
2026-05-04 18:23 37.92596 23.94284 303 ft 11 kts 207°
2026-05-04 18:23 37.92538 23.94321 305 ft 11 kts 124°
2026-05-04 18:23 37.92495 23.94394 308 ft 10 kts 127°
2026-05-04 18:23 37.92484 23.94452 308 ft 7 kts 43°
2026-05-04 18:24 37.92621 23.94583 305 ft 57 kts 37°
2026-05-04 18:24 37.93125 23.95060 296 ft 120 kts 37°
2026-05-04 18:24 37.93918 23.95814 324 ft 161 kts 37°
2026-05-04 18:24 37.94808 23.96657 984 ft 156 kts 37°
2026-05-04 18:25 37.95667 23.97465 1624 ft 156 kts 36°
2026-05-04 18:25 37.96527 23.98297 2242 ft 156 kts 35°
2026-05-04 18:25 37.97391 23.99139 2831 ft 158 kts 34°
2026-05-04 18:25 37.98278 23.99989 3447 ft 158 kts 33°
2026-05-04 18:26 37.99157 24.00814 3966 ft 166 kts 33°
2026-05-04 18:26 38.00147 24.01733 4291 ft 186 kts 33°
2026-05-04 18:26 38.01247 24.02748 4608 ft 208 kts 33°
2026-05-04 18:26 38.02484 24.03891 5009 ft 232 kts 34°
2026-05-04 18:27 38.03842 24.05152 5556 ft 248 kts 34°
2026-05-04 18:27 38.05256 24.06454 6416 ft 254 kts 33°
2026-05-04 18:27 38.06698 24.07788 7275 ft 258 kts 34°
2026-05-04 18:27 38.08150 24.09153 8135 ft 262 kts 34°
2026-05-04 18:28 38.09610 24.10530 8967 ft 266 kts 33°
2026-05-04 18:28 38.11109 24.11945 9787 ft 271 kts 33°
2026-05-04 18:28 38.12641 24.13384 10433 ft 281 kts 33°
2026-05-04 18:28 38.14284 24.14920 10670 ft 305 kts 33°
2026-05-04 18:29 38.16052 24.16574 10915 ft 325 kts 33°
2026-05-04 18:29 38.17892 24.18305 11491 ft 332 kts 34°
2026-05-04 18:29 38.19755 24.20064 12197 ft 336 kts 34°
2026-05-04 18:29 38.21640 24.21846 12908 ft 339 kts 34°
2026-05-04 18:30 38.25462 24.25450 14333 ft 345 kts 34°
2026-05-04 18:30 38.27399 24.27272 14954 ft 348 kts 35°
2026-05-04 18:30 38.29362 24.29124 15534 ft 352 kts 35°
2026-05-04 18:31 38.31337 24.30993 16112 ft 356 kts 35°
2026-05-04 18:31 38.33337 24.32884 16696 ft 360 kts 35°
2026-05-04 18:31 38.35356 24.34789 17290 ft 364 kts 35°
2026-05-04 18:31 38.37400 24.36721 17876 ft 368 kts 35°
2026-05-04 18:32 38.39463 24.38676 18481 ft 372 kts 35°
2026-05-04 18:32 38.41547 24.40649 19057 ft 374 kts 34°
2026-05-04 18:32 38.43644 24.42634 19647 ft 377 kts 34°
2026-05-04 18:32 38.45757 24.44634 20231 ft 380 kts 34°
2026-05-04 18:33 38.47970 24.46481 20783 ft 381 kts 24°
2026-05-04 18:33 38.50497 24.47481 21313 ft 383 kts
2026-05-04 18:33 38.53139 24.47976 21840 ft 386 kts
2026-05-04 18:33 38.55811 24.48450 22331 ft 389 kts
2026-05-04 18:34 38.58503 24.48922 22817 ft 392 kts
2026-05-04 18:34 38.61218 24.49399 23292 ft 396 kts
2026-05-04 18:34 38.63957 24.49881 23745 ft 399 kts
2026-05-04 18:34 38.66719 24.50373 24132 ft 402 kts
2026-05-04 18:35 38.69495 24.50870 24515 ft 405 kts
2026-05-04 18:35 38.72292 24.51365 24911 ft 407 kts
2026-05-04 18:35 38.75100 24.51861 25290 ft 409 kts
2026-05-04 18:35 38.77928 24.52362 25657 ft 411 kts
2026-05-04 18:36 38.80772 24.52869 26017 ft 414 kts
2026-05-04 18:36 38.83639 24.53381 26370 ft 417 kts
2026-05-04 18:36 38.86514 24.53897 26724 ft 419 kts
2026-05-04 18:36 38.89408 24.54421 27082 ft 422 kts
2026-05-04 18:37 38.92321 24.54976 27456 ft 424 kts
2026-05-04 18:37 38.95242 24.55558 27822 ft 426 kts 10°
2026-05-04 18:37 38.98177 24.56156 28168 ft 428 kts 10°
2026-05-04 18:37 39.01088 24.56750 28499 ft 431 kts 10°
2026-05-04 18:38 39.04063 24.57353 28829 ft 433 kts 10°
2026-05-04 18:38 39.07092 24.57964 29156 ft 436 kts 10°
2026-05-04 18:38 39.10055 24.58553 29476 ft 438 kts 10°
2026-05-04 18:38 39.13065 24.59150 29918 ft 438 kts 10°
2026-05-04 18:39 39.16071 24.59751 30346 ft 437 kts 10°
2026-05-04 18:39 39.19075 24.60358 30733 ft 436 kts 10°
2026-05-04 18:39 39.22072 24.60968 31142 ft 435 kts 10°
2026-05-04 18:39 39.25063 24.61579 31560 ft 434 kts
2026-05-04 18:40 39.28041 24.62189 31986 ft 433 kts
2026-05-04 18:40 39.31017 24.62801 32399 ft 433 kts
2026-05-04 18:40 39.32986 24.63207 32673 ft 432 kts
2026-05-04 18:40 39.35952 24.63819 33099 ft 431 kts
2026-05-04 18:41 39.38913 24.64428 33524 ft 430 kts
2026-05-04 18:41 39.41866 24.65032 33957 ft 429 kts
2026-05-04 18:41 39.44815 24.65633 34349 ft 428 kts
2026-05-04 18:41 39.47774 24.65934 34711 ft 427 kts 358°
2026-05-04 18:42 39.50714 24.65520 35037 ft 426 kts 347°
2026-05-04 18:42 39.53545 24.64413 35349 ft 425 kts 337°
2026-05-04 18:42 39.56218 24.62790 35680 ft 425 kts 334°
2026-05-04 18:42 39.58877 24.61121 36024 ft 423 kts 334°
2026-05-04 18:43 39.61521 24.59457 36373 ft 422 kts 334°
2026-05-04 18:43 39.64158 24.57797 36720 ft 420 kts 334°
2026-05-04 18:43 39.66782 24.56149 37058 ft 418 kts 334°
2026-05-04 18:43 39.69396 24.54504 37394 ft 417 kts 334°
2026-05-04 18:44 39.72001 24.52863 37718 ft 415 kts 334°
2026-05-04 18:44 39.73722 24.51778 37936 ft 415 kts 334°
2026-05-04 18:44 39.77195 24.49582 38084 ft 416 kts 334°
2026-05-04 18:45 39.82416 24.46281 38087 ft 418 kts 334°
2026-05-04 18:45 39.87639 24.42970 38084 ft 418 kts 334°
2026-05-04 18:46 39.92863 24.39656 38087 ft 418 kts 334°
2026-05-04 18:46 39.98094 24.36333 38087 ft 419 kts 334°
2026-05-04 18:47 40.03301 24.33019 38087 ft 420 kts 334°
2026-05-04 18:47 40.08585 24.29656 38090 ft 420 kts 334°
2026-05-04 18:48 40.13835 24.26305 38091 ft 420 kts 334°
2026-05-04 18:48 40.19048 24.22971 38093 ft 420 kts 334°
2026-05-04 18:49 40.24303 24.19610 38093 ft 421 kts 334°
2026-05-04 18:49 40.29562 24.16233 38093 ft 421 kts 334°
2026-05-04 18:50 40.34815 24.12856 38090 ft 421 kts 334°
2026-05-04 18:50 40.40066 24.09464 38091 ft 420 kts 334°
2026-05-04 18:51 40.45318 24.06071 38082 ft 420 kts 334°
2026-05-04 18:51 40.50565 24.02681 38084 ft 420 kts 334°
2026-05-04 18:52 40.55815 23.99288 38083 ft 421 kts 334°
2026-05-04 18:52 40.61061 23.95883 38085 ft 421 kts 334°
2026-05-04 18:53 40.66346 23.92541 38088 ft 421 kts 335°
2026-05-04 18:53 40.71645 23.89245 38089 ft 421 kts 335°
2026-05-04 18:54 40.76943 23.85926 38095 ft 421 kts 335°
2026-05-04 18:54 40.79595 23.84259 37838 ft 422 kts 335°
2026-05-04 18:54 40.82239 23.82594 37418 ft 422 kts 335°
2026-05-04 18:54 40.84890 23.80920 37025 ft 423 kts 334°
2026-05-04 18:55 40.87544 23.79240 36630 ft 424 kts 334°
2026-05-04 18:55 40.92888 23.75857 35861 ft 427 kts 335°
2026-05-04 18:55 40.95569 23.74159 35476 ft 429 kts 334°
2026-05-04 18:56 40.98277 23.72439 35107 ft 432 kts 334°
2026-05-04 18:56 41.00994 23.70716 34742 ft 435 kts 334°
2026-05-04 18:56 41.03731 23.68979 34384 ft 437 kts 334°
2026-05-04 18:56 41.06474 23.67235 34023 ft 439 kts 334°
2026-05-04 18:57 41.09237 23.65477 33625 ft 441 kts 334°
2026-05-04 18:57 41.12001 23.63712 33207 ft 442 kts 334°
2026-05-04 18:57 41.14770 23.61937 32810 ft 443 kts 334°
2026-05-04 18:57 41.17514 23.60178 32294 ft 443 kts 334°
2026-05-04 18:58 41.20336 23.58370 31785 ft 446 kts 335°
2026-05-04 18:58 41.23106 23.56600 31266 ft 449 kts 334°
2026-05-04 18:58 41.25923 23.54797 30514 ft 449 kts 335°
2026-05-04 18:58 41.28767 23.52975 29823 ft 447 kts 335°
2026-05-04 18:59 41.31519 23.51206 29156 ft 443 kts 335°
2026-05-04 18:59 41.34277 23.49426 28549 ft 438 kts 335°
2026-05-04 18:59 41.37004 23.47671 27973 ft 433 kts 336°
2026-05-04 18:59 41.39802 23.46295 27431 ft 425 kts 346°
2026-05-04 19:00 41.42684 23.45514 26853 ft 420 kts 354°
2026-05-04 19:00 41.45581 23.45287 26329 ft 415 kts 359°
2026-05-04 19:00 41.48445 23.45162 25795 ft 410 kts 359°
2026-05-04 19:00 41.51286 23.45023 25264 ft 406 kts 358°
2026-05-04 19:01 41.54097 23.44879 24728 ft 403 kts 358°
2026-05-04 19:01 41.56888 23.44734 24228 ft 399 kts 358°
2026-05-04 19:01 41.59647 23.44590 23760 ft 395 kts 358°
2026-05-04 19:01 41.62379 23.44445 23250 ft 391 kts 358°
2026-05-04 19:02 41.65087 23.44304 22713 ft 388 kts 359°
2026-05-04 19:02 41.67771 23.44168 22209 ft 385 kts 359°
2026-05-04 19:02 41.70436 23.44035 21717 ft 382 kts 359°
2026-05-04 19:02 41.73084 23.43899 21323 ft 380 kts 359°
2026-05-04 19:03 41.75723 23.43766 20943 ft 379 kts 359°
2026-05-04 19:03 41.78350 23.43633 20570 ft 377 kts 359°
2026-05-04 19:03 41.80966 23.43498 20198 ft 375 kts 359°
2026-05-04 19:03 41.83571 23.43364 19833 ft 374 kts 359°
2026-05-04 19:04 41.86162 23.43234 19472 ft 372 kts 359°
2026-05-04 19:04 41.88738 23.43106 19219 ft 370 kts 359°
2026-05-04 19:04 41.91311 23.42977 19111 ft 369 kts 359°
2026-05-04 19:04 41.93883 23.42847 19141 ft 370 kts 359°
2026-05-04 19:05 41.96451 23.42717 19139 ft 365 kts 359°
2026-05-04 19:05 41.98923 23.42591 19140 ft 347 kts 359°
2026-05-04 19:05 42.01280 23.42470 19141 ft 331 kts 359°
2026-05-04 19:05 42.03528 23.42354 19147 ft 316 kts 359°
2026-05-04 19:06 42.05676 23.42242 19142 ft 302 kts 359°
2026-05-04 19:06 42.07731 23.42136 19140 ft 289 kts 359°
2026-05-04 19:06 42.09704 23.42036 19147 ft 282 kts 359°
2026-05-04 19:06 42.11668 23.41940 19152 ft 282 kts 359°
2026-05-04 19:07 42.13624 23.41843 19145 ft 281 kts 359°
2026-05-04 19:07 42.15572 23.41743 19143 ft 280 kts 359°
2026-05-04 19:07 42.17519 23.41640 19150 ft 281 kts 359°
2026-05-04 19:07 42.19485 23.41538 19036 ft 286 kts 359°
2026-05-04 19:08 42.21531 23.41435 18269 ft 302 kts 359°
2026-05-04 19:08 42.23693 23.41326 17322 ft 319 kts 360°
2026-05-04 19:08 42.25961 23.41214 16379 ft 334 kts
2026-05-04 19:08 42.28289 23.41180 15899 ft 331 kts
2026-05-04 19:09 42.30531 23.41544 15539 ft 324 kts 13°
2026-05-04 19:09 42.32721 23.42318 14598 ft 336 kts 19°
2026-05-04 19:09 42.35000 23.43243 13573 ft 349 kts 19°
2026-05-04 19:09 42.37360 23.44203 12582 ft 357 kts 19°
2026-05-04 19:10 42.39731 23.45167 11873 ft 354 kts 19°
2026-05-04 19:10 42.42072 23.46118 11242 ft 349 kts 18°
2026-05-04 19:10 42.44363 23.47041 11013 ft 335 kts 18°
2026-05-04 19:10 42.46539 23.47913 10885 ft 318 kts 18°
2026-05-04 19:11 42.48613 23.48747 10763 ft 305 kts 19°
2026-05-04 19:11 42.50605 23.49550 10640 ft 293 kts 19°
2026-05-04 19:11 42.52517 23.50325 10511 ft 282 kts 19°
2026-05-04 19:11 42.54367 23.51078 10386 ft 272 kts 19°
2026-05-04 19:12 42.56147 23.51808 10265 ft 262 kts 20°
2026-05-04 19:12 42.58978 23.54467 9822 ft 249 kts 51°
2026-05-04 19:12 42.59837 23.56560 9297 ft 259 kts 68°
2026-05-04 19:13 42.60185 23.58985 8918 ft 266 kts 84°
2026-05-04 19:13 42.60072 23.61506 8554 ft 269 kts 91°
2026-05-04 19:13 42.59912 23.64032 8276 ft 267 kts 91°
2026-05-04 19:13 42.59756 23.66499 8150 ft 258 kts 91°
2026-05-04 19:14 42.59606 23.68889 8035 ft 249 kts 91°
2026-05-04 19:14 42.59463 23.71174 8027 ft 237 kts 91°
2026-05-04 19:14 42.59326 23.73335 8029 ft 224 kts 90°
2026-05-04 19:14 42.59196 23.75433 8030 ft 222 kts 90°
2026-05-04 19:15 42.59068 23.77510 8031 ft 220 kts 90°
2026-05-04 19:15 42.58938 23.79583 8032 ft 220 kts 90°
2026-05-04 19:15 42.58807 23.81652 8030 ft 220 kts 90°
2026-05-04 19:15 42.58674 23.83722 8032 ft 220 kts 90°
2026-05-04 19:16 42.58542 23.85789 8031 ft 220 kts 90°
2026-05-04 19:16 42.58411 23.87858 8025 ft 220 kts 90°
2026-05-04 19:16 42.58367 23.89922 8031 ft 217 kts 76°
2026-05-04 19:16 42.58909 23.91775 8023 ft 210 kts 50°
2026-05-04 19:17 42.60000 23.93040 8019 ft 208 kts 25°
2026-05-04 19:17 42.61399 23.93463 8019 ft 209 kts 359°
2026-05-04 19:17 42.62808 23.92935 8021 ft 215 kts 333°
2026-05-04 19:17 42.63889 23.91544 7952 ft 223 kts 306°
2026-05-04 19:18 42.64500 23.89546 7429 ft 238 kts 293°
2026-05-04 19:18 42.65029 23.87379 7003 ft 244 kts 291°
2026-05-04 19:18 42.65548 23.85187 6739 ft 243 kts 291°
2026-05-04 19:18 42.66060 23.83009 6507 ft 241 kts 291°
2026-05-04 19:19 42.66566 23.80872 6376 ft 234 kts 290°
2026-05-04 19:19 42.67060 23.78799 6236 ft 226 kts 291°
2026-05-04 19:19 42.67481 23.76790 6125 ft 218 kts 281°
2026-05-04 19:19 42.67611 23.74770 6038 ft 210 kts 277°
2026-05-04 19:20 42.67726 23.72808 5875 ft 207 kts 278°
2026-05-04 19:20 42.67848 23.70857 5624 ft 207 kts 277°
2026-05-04 19:20 42.67970 23.68913 5356 ft 206 kts 277°
2026-05-04 19:20 42.68092 23.66970 5089 ft 207 kts 277°
2026-05-04 19:21 42.68213 23.65031 4848 ft 204 kts 277°
2026-05-04 19:21 42.68332 23.63119 4551 ft 202 kts 276°
2026-05-04 19:21 42.68449 23.61235 4274 ft 198 kts 275°
2026-05-04 19:21 42.68563 23.59390 4028 ft 194 kts 275°
2026-05-04 19:22 42.68677 23.57579 3730 ft 190 kts 275°
2026-05-04 19:22 42.68796 23.55811 3503 ft 185 kts 275°
2026-05-04 19:22 42.68923 23.54096 3246 ft 176 kts 275°
2026-05-04 19:22 42.69028 23.52569 3073 ft 153 kts 274°
2026-05-04 19:23 42.69099 23.51177 2827 ft 145 kts 272°
2026-05-04 19:23 42.69175 23.49814 2646 ft 142 kts 274°
2026-05-04 19:23 42.69267 23.48486 2467 ft 142 kts 274°
2026-05-04 19:23 42.69339 23.47133 2275 ft 143 kts 272°
2026-05-04 19:24 42.69415 23.45805 2087 ft 143 kts 274°
2026-05-04 19:24 42.69488 23.44457 1889 ft 143 kts 273°
2026-05-04 19:24 42.69566 23.43146 1754 ft 128 kts 274°
2026-05-04 19:24 42.69622 23.42210 1753 ft 60 kts 275°
2026-05-04 19:25 42.69637 23.41860 1751 ft 21 kts 270°
2026-05-04 19:25 42.69615 23.41692 1755 ft 16 kts 258°
2026-05-04 19:25 42.69582 23.41562 1751 ft 14 kts 245°
2026-05-04 19:25 42.69548 23.41464 1753 ft 10 kts 245°
2026-05-04 19:26 42.69517 23.41371 1748 ft 12 kts 246°
2026-05-04 19:26 42.69481 23.41258 1744 ft 10 kts 246°
2026-05-04 19:26 42.69438 23.41212 1753 ft 8 kts 197°
2026-05-04 19:26 42.69399 23.41201 1744 ft 3 kts 191°
2026-05-04 19:27 42.69373 23.41194 1749 ft 5 kts 191°
2026-05-04 19:27 42.69323 23.41179 1753 ft 11 kts 192°
2026-05-04 19:27 42.69234 23.41158 1743 ft 14 kts 185°
2026-05-04 19:27 42.69129 23.41195 1751 ft 17 kts 162°
2026-05-04 19:28 42.69046 23.41231 1745 ft 11 kts 162°
2026-05-04 19:28 42.69019 23.41271 1745 ft 6 kts 78°
2026-05-04 19:28 42.69028 23.41306 1751 ft 6 kts 71°
2026-05-04 19:28 42.69032 23.41321 1750 ft 0 kts 72°